Location: Newark
(50.0306°N, 2.3272°E)
Time: 12:00:18
(UTC+00:00)

Vanguard 1 Rocket - Pass Details

Date: 19 December 2019
Orbit: 650 x 4226 km, 34.3° (Epoch: 26 January)

Event Time Altitude Azimuth Distance (km) Brightness Sun altitude
Rises 23:54:09 0° 272° (W) 6,930 11.9 -63.3°
Enters shadow 23:57:39 - 267° (W) 6,027 11.5 -63.3°
Reaches altitude 10° 00:00:53 10° 260° (W) 5,192 - -63.2°
Maximum altitude 00:09:46 21° 220° (SW) 3,316 - -63.0°
Drops below altitude 10° 00:15:45 10° 175° (S) 3,322 - -62.8°
Sets 00:18:52 0° 158° (SSE) 3,897 - -62.7°
